FW2027 Weather Reports


Display with metric or nautical units.
time (UTC)temp
F
wind
direction
speed
MPH
gust
MPH
rain 1hr
in
rain 24hr
in
rain mn
in
humidity
%
barometer
mb
20260904131554 65 245 8.0 15.0 0.00 0.17 0.17 70 1012.8
20260904130054 66 263 8.0 16.0 0.00 0.17 0.17 70 1012.7
20260904124553 65 273 7.0 14.0 0.00 0.17 0.17 71 1012.6
20260904123051 64 279 5.0 16.0 0.00 0.17 0.17 70 1012.5
20260904121550 65 267 7.0 17.0 0.00 0.17 0.17 71 1012.3
20260904120100 65 263 5.0 13.0 0.00 0.17 0.17 73 1011.9
20260904114547 64 282 6.0 17.0 0.00 0.17 0.17 72 1012.0
20260904113045 64 244 7.0 17.0 0.00 0.17 0.17 73 1011.8
20260904111545 64 259 8.0 18.0 0.00 0.17 0.17 74 1011.6
20260904110042 63 268 8.0 15.0 0.00 0.17 0.17 74 1011.5
20260904104542 63 254 6.0 14.0 0.00 0.17 0.17 75 1011.4
20260904103036 62 246 4.0 9.0 0.00 0.17 0.17 79 1011.5
20260904101533 62 277 3.0 8.0 0.00 0.17 0.17 82 1011.5
20260904100039 61 303 3.0 8.0 0.00 0.17 0.17 85 1011.5
20260904094530 60 305 2.0 7.0 0.00 0.17 0.17 88 1011.2
20260904093050 60 257 4.0 9.0 0.00 0.17 0.17 91 1011.0
20260904091526 60 240 2.0 7.0 0.00 0.17 0.17 93 1010.9
20260904090024 61 292 6.0 12.0 0.00 0.17 0.17 90 1010.8
20260904084523 61 205 2.0 4.0 0.00 0.17 0.17 92 1010.3
20260904083022 61 238 1.0 4.0 0.00 0.17 0.17 92 1010.3
20260904081521 60 283 3.0 11.0 0.00 0.17 0.17 92 1010.6
20260904080020 60 237 3.0 9.0 0.00 0.17 0.17 93 1010.0
20260904074519 60 303 4.0 9.0 0.01 0.17 0.17 94 1009.8
20260904073035 60 223 6.0 11.0 0.02 0.17 0.17 95 1009.5
20260904071513 61 275 3.0 8.0 0.02 0.17 0.17 97 1009.2
20260904070016 61 284 3.0 7.0 0.03 0.17 0.17 96 1009.1
20260904064517 61 263 4.0 9.0 0.02 0.16 0.16 97 1009.2
20260904063009 62 217 4.0 8.0 0.01 0.14 0.14 96 1008.7
20260904061510 62 261 3.0 9.0 0.02 0.14 0.14 96 1008.4